Glens Falls, NY

2:52 AM EST on January 16, 2018 (GMT -0500)
Bennett Memorial

Weather History for KGFL - May, 2014

Change the Weather History Date:

Monday, May 12, 2014

  Actual Average Record
Temperature  
Mean Temperature 67 °F 54 °F  
Max Temperature 88 °F 67 °F 87 °F (2014)
Min Temperature 46 °F 41 °F 28 °F (2005)
Degree Days  
Heating Degree Days 0 11  
Month to date heating degree days 94 153  
Since 1 July heating degree days 7681 7429  
Cooling Degree Days 2 0  
Month to date cooling degree days 11 0  
Year to date cooling degree days 11 1  
Growing Degree Days 18 (Base 50)    
Moisture  
Dew Point 43 °F    
Average Humidity 50    
Maximum Humidity 80    
Minimum Humidity 20    
Precipitation  
Precipitation 0.00 in 0.12 in 1.25 in (1974)
Month to date precipitation 0.85 1.37  
Year to date precipitation 10.92 12.25  
Sea Level Pressure  
Sea Level Pressure 30.05 in    
Wind  
Wind Speed 5 mph (NE)    
Max Wind Speed 18 mph    
Max Gust Speed 24 mph    
Visibility 10 miles    
Events      
T = Trace of Precipitation, MM = Missing Value Source: NWS Daily Summary

Daily Weather History Graph

Daily Weather History Graph

Search for Another Location

Airport or City:

Trip Planner

Search our weather history database for the weather conditions in past years. The results will help you decide how hot, cold, wet, or windy it might be!

Date:

Astronomy

May. 12, 2014 Rise Set
Actual Time 5:33 AM EDT 8:08 PM EDT
Civil Twilight 5:01 AM EDT 8:41 PM EDT
Nautical Twilight 4:20 AM EDT 9:22 PM EDT
Astronomical Twilight 3:34 AM EDT 10:08 PM EDT
Moon 6:00 PM EDT (5/12) 4:15 AM EDT (5/12)
Length of Visible Light 15h 40m
Length of Day
14h 35m
Waxing Gibbous, 95% of the Moon is Illuminated
May 12
Waxing Gibbous
May 14
Full
May 21
Last Quarter
May 28
New
Jun 5
First Quarter

Hourly Weather History & Observations

Time (EDT) Temp. Dew Point Humidity Pressure Visibility Wind Dir Wind Speed Gust Speed Precip Events Conditions
12:53 AM 51.1 °F 42.1 °F 71% 30.06 in 10.0 mi Calm Calm - N/A   Clear
1:53 AM 48.0 °F 41.0 °F 77% 30.06 in 10.0 mi Calm Calm - N/A   Clear
2:53 AM 48.0 °F 41.0 °F 77% 30.06 in 10.0 mi Calm Calm - N/A   Clear
3:53 AM 48.0 °F 42.1 °F 80% 30.08 in 10.0 mi Calm Calm - N/A   Scattered Clouds
4:53 AM 48.9 °F 42.1 °F 77% 30.08 in 10.0 mi Calm Calm - N/A   Overcast
5:53 AM 48.9 °F 43.0 °F 80% 30.08 in 10.0 mi Calm Calm - N/A   Scattered Clouds
6:53 AM 54.0 °F 45.0 °F 72% 30.09 in 10.0 mi Calm Calm - N/A   Mostly Cloudy
7:53 AM 62.1 °F 45.0 °F 53% 30.10 in 10.0 mi WNW 3.5 mph - N/A   Clear
8:53 AM 66.9 °F 45.0 °F 45% 30.09 in 10.0 mi Calm Calm - N/A   Clear
9:53 AM 71.6 °F 44.6 °F 38% 30.09 in 10.0 mi South 4.6 mph - N/A   Clear
10:53 AM 77.0 °F 46.0 °F 33% 30.07 in 10.0 mi SE 6.9 mph - N/A   Clear
11:53 AM 79.0 °F 44.1 °F 29% 30.06 in 10.0 mi SE 6.9 mph - N/A   Clear
12:53 PM 82.0 °F 44.1 °F 26% 30.03 in 10.0 mi South 12.7 mph - N/A   Clear
1:53 PM 84.0 °F 42.1 °F 23% 30.01 in 10.0 mi South 11.5 mph 20.7 mph N/A   Clear
2:53 PM 86.0 °F 44.1 °F 23% 29.99 in 10.0 mi ESE 8.1 mph - N/A   Clear
3:53 PM 84.9 °F 43.0 °F 23% 29.97 in 10.0 mi ENE 6.9 mph - N/A   Clear
4:53 PM 87.1 °F 41.0 °F 20% 29.96 in 10.0 mi Variable 3.5 mph - N/A   Clear
5:53 PM 84.9 °F 43.0 °F 23% 29.97 in 10.0 mi North 5.8 mph - N/A   Clear
6:53 PM 78.1 °F 45.0 °F 31% 29.99 in 10.0 mi ENE 8.1 mph - N/A   Clear
7:53 PM 71.1 °F 45.0 °F 39% 30.03 in 10.0 mi North 4.6 mph - N/A   Scattered Clouds
8:53 PM 70.0 °F 44.1 °F 39% 30.05 in 10.0 mi North 11.5 mph - N/A   Clear
9:53 PM 69.1 °F 42.1 °F 38% 30.08 in 10.0 mi NNE 8.1 mph - N/A   Clear
10:53 PM 66.2 °F 42.8 °F 43% 30.08 in 10.0 mi North 5.8 mph - N/A   Clear
11:53 PM 66.0 °F 43.0 °F 43% 30.08 in 10.0 mi WNW 4.6 mph - N/A   Partly Cloudy